[[{"header":{"parameterUnit":"m.s-1","parameterCategory":1,"la1":30.2992,"la2":30.254,"lo1":-89.0895,"lo2":-89.0443,"dy":0.0025,"dx":0.0025,"nx":19,"ny":19,"refTime":"2026-04-10T09:00:00:Z","depth":0,"parameterNumber":2,"parameterNumberName":"U-component_of_WINDS"},"data":[0,0,0,-3.0994,-3.0998,-3.1173,-3.1173,-3.1419,-3.1422,0,0,0,0,0,0,0,0,0,0,0,-3.0954,-3.0956,-3.0994,-3.0998,-3.1173,-3.1173,-3.1419,-3.1422,0,0,0,0,0,0,0,0,0,0,0,-3.0953,-3.0956,-3.0958,-3.0999,-3.1173,-3.1173,-3.1418,-3.1279,0,0,0,0,0,0,0,0,0,0,-3.1106,-3.108,-3.0955,-3.0958,-3.1,-3.1172,-3.1174,-3.1272,-3.1288,-3.1349,0,-3.1406,0,-3.1418,-3.1439,-3.144,0,0,0,-3.099,-3.1067,-3.1103,-3.0959,-3.1002,-3.1172,-3.1092,-3.1281,-3.1298,-3.137,-3.1409,-3.1418,-3.1422,-3.1441,-3.1443,-3.1824,-3.1826,0,0,-3.098,-3.0993,-3.1091,-3.1115,-3.1088,-3.1086,-3.1097,-3.1291,-3.1335,-3.141,-3.1423,-3.1426,-3.1443,-3.1445,-3.1821,-3.1824,0,0,0,-3.0958,-3.0986,-3.1017,-3.1106,-3.1135,-3.1091,-3.1104,-3.1326,-3.1335,-3.1426,-3.1429,-3.1444,-3.1448,-3.1819,-3.1822,-3.1944,0,0,0,-3.0952,-3.0973,-3.1013,-3.1023,-3.1132,-3.1233,-3.1135,-3.1322,-3.1343,-3.1427,-3.1445,-3.145,-3.1817,-3.1821,-3.1935,-3.2,0,0,0,-3.0939,-3.0971,-3.1001,-3.1023,-3.1098,-3.1229,-3.1249,-3.1326,-3.1346,-3.1441,-3.1451,-3.1815,-3.182,-3.1927,-3.1988,-3.2107,0,0,0,-3.0929,-3.1105,-3.1003,-3.1201,-3.1097,-3.1301,-3.1247,-3.1399,-3.1495,-3.1446,-3.1817,-3.1822,-3.1925,-3.198,-3.2099,-3.2212,-3.2259,0,0,-3.1159,-3.1133,-3.1249,-3.1162,-3.1389,-3.1273,-3.1518,-3.1594,-3.1592,-3.1747,-3.1756,-3.1938,-3.1987,-3.2105,-3.2512,-3.2549,0,0,0,-3.1326,-3.141,-3.1467,-3.1558,-3.162,-3.168,-3.1717,-3.1745,-3.1876,-3.1674,-3.201,-3.2039,-3.2108,-3.2162,-3.2194,-3.2254,-3.1846,-3.1846,-3.1845,-3.1672,-3.1659,-3.1851,-3.1859,-3.1949,-3.1985,-3.2057,-3.2102,-3.2063,-3.2143,-3.2191,-3.2439,-3.2502,-3.2526,-3.2589,-3.2245,-3.2246,-3.2246,-3.2247,-3.2011,-3.2129,-3.2072,-3.2238,-3.2224,-3.2364,-3.2406,-3.2374,-3.2504,-3.2401,-3.2462,-3.2354,-3.2567,-3.2622,-3.2256,-3.2254,-3.2253,-3.2252,-3.2252,-3.2239,-3.2294,-3.2324,-3.2455,-3.2558,-3.256,-3.2688,-3.2669,-3.2654,-3.2713,-3.2763,-3.2761,-3.276,-3.2737,-3.2738,-3.2739,-3.2739,-3.274,-3.2741,-3.2466,-3.2496,-3.2605,-3.2685,-3.2742,-3.2815,-3.2853,-3.2909,-3.2967,-3.2944,-3.2945,-3.2901,-3.2588,-3.2513,-3.2754,-3.2752,-3.275,-3.2749,-3.2748,-3.2822,-3.2738,-3.2907,-3.2964,-3.3057,-3.3163,-3.3136,-3.3253,-3.3296,-3.3361,-3.3303,-3.3073,-3.3047,-3.3022,-3.2959,-3.3302,-3.3302,-3.3302,-3.3302,-3.3018,-3.3001,-3.3171,-3.3264,-3.3352,-3.3345,-3.354,-3.3572,-3.3592,-3.3619,-3.3566,-3.348,-3.3454,-3.3444,-3.3409,-3.3351,-3.3785,-3.3786,-3.3786,-3.3238,-3.3229,-3.3398,-3.3414,-3.3486,-3.3549,-3.3732,-3.3843,-3.3848,-3.3806,-3.3641,-3.362,-3.3481,-3.3436,-3.3394,-3.3341,-3.3233,0,0]},{"header":{"parameterUnit":"m.s-1","parameterCategory":1,"la1":30.2992,"la2":30.254,"lo1":-89.0895,"lo2":-89.0443,"dy":0.0025,"dx":0.0025,"nx":19,"ny":19,"refTime":"2026-04-10T09:00:00:Z","depth":0,"parameterNumber":3,"parameterNumberName":"V-component_of_WINDS"},"data":[0,0,0,-2.0211,-2.021,-2.0151,-2.0151,-2.0084,-2.0083,0,0,0,0,0,0,0,0,0,0,0,-2.0236,-2.0236,-2.0211,-2.021,-2.0151,-2.0151,-2.0084,-2.0083,0,0,0,0,0,0,0,0,0,0,0,-2.0237,-2.0236,-2.0236,-2.021,-2.0151,-2.0151,-2.0084,-2.0125,0,0,0,0,0,0,0,0,0,0,-2.018,-2.0212,-2.0236,-2.0236,-2.021,-2.0151,-2.0151,-2.0127,-2.0122,-2.0115,0,-2.0113,0,-2.0097,-2.0079,-2.0079,0,0,0,-2.0204,-2.0216,-2.0193,-2.0236,-2.0209,-2.0152,-2.0176,-2.0124,-2.0119,-2.0109,-2.0111,-2.0109,-2.0096,-2.0079,-2.0079,-2.0061,-2.0062,0,0,-2.0207,-2.023,-2.0197,-2.019,-2.0203,-2.0178,-2.0174,-2.0121,-2.0124,-2.0111,-2.0107,-2.0095,-2.0079,-2.0078,-2.0061,-2.0061,0,0,0,-2.0221,-2.0232,-2.021,-2.0193,-2.0182,-2.0176,-2.0172,-2.0126,-2.0118,-2.0106,-2.0094,-2.0078,-2.0078,-2.0061,-2.0061,-2.0094,0,0,0,-2.0222,-2.024,-2.0212,-2.0225,-2.0184,-2.0154,-2.0179,-2.0121,-2.0115,-2.0094,-2.0078,-2.0077,-2.0061,-2.0061,-2.0093,-2.0106,0,0,0,-2.0238,-2.0242,-2.0236,-2.0227,-2.0203,-2.0155,-2.0142,-2.0119,-2.0108,-2.0079,-2.0077,-2.0061,-2.0061,-2.0092,-2.0104,-2.0107,0,0,0,-2.026,-2.0266,-2.0237,-2.0239,-2.0203,-2.0177,-2.0143,-2.0121,-2.0101,-2.0078,-2.0061,-2.0061,-2.0091,-2.0102,-2.0106,-2.0114,-2.012,0,0,-2.0281,-2.027,-2.0269,-2.0241,-2.0226,-2.0184,-2.0172,-2.0131,-2.0106,-2.0077,-2.0076,-2.0093,-2.0104,-2.0107,-2.0145,-2.015,0,0,0,-2.0283,-2.0283,-2.0274,-2.0256,-2.0226,-2.02,-2.0159,-2.0143,-2.0117,-2.0097,-2.0095,-2.0101,-2.0101,-2.0104,-2.0108,-2.0106,-2.0064,-2.0064,-2.0064,-2.0344,-2.0314,-2.0309,-2.0271,-2.0254,-2.0211,-2.0194,-2.0164,-2.0138,-2.0138,-2.0129,-2.0156,-2.016,-2.0163,-2.0162,-2.0131,-2.0131,-2.0131,-2.0131,-2.037,-2.0364,-2.0329,-2.0312,-2.0279,-2.0263,-2.022,-2.0202,-2.018,-2.0161,-2.016,-2.0141,-2.017,-2.0167,-2.0134,-2.0133,-2.0133,-2.0133,-2.0133,-2.0407,-2.0398,-2.038,-2.035,-2.033,-2.029,-2.0272,-2.0241,-2.0212,-2.0211,-2.0197,-2.0197,-2.0191,-2.0207,-2.0207,-2.0207,-2.0207,-2.0207,-2.0207,-2.0451,-2.0429,-2.0419,-2.0386,-2.037,-2.0345,-2.03,-2.0282,-2.0254,-2.0233,-2.0232,-2.0204,-2.0179,-2.0173,-2.0209,-2.0208,-2.0208,-2.0208,-2.0208,-2.0488,-2.0474,-2.0458,-2.0442,-2.04,-2.0381,-2.0342,-2.0308,-2.0289,-2.028,-2.0251,-2.0238,-2.0224,-2.022,-2.0215,-2.0259,-2.0259,-2.0259,-2.0259,-2.0518,-2.0508,-2.0484,-2.046,-2.0432,-2.0395,-2.0374,-2.0338,-2.0298,-2.0283,-2.0272,-2.0262,-2.026,-2.0247,-2.0243,-2.0237,-2.0287,-2.0287,-2.0287,-2.0538,-2.0524,-2.0514,-2.0477,-2.0441,-2.041,-2.0389,-2.0359,-2.0311,-2.0287,-2.027,-2.0269,-2.0253,-2.025,-2.0226,-2.022,-2.0209,0,0]}]]